Location: Newark
(25.6108°S, 54.5803°W)
Time: 17:01:46
(UTC+00:00)

Courier 1B Rocket - Pass Details

Date: 27 October 2020
Orbit: 920 x 1202 km, 28.2° (Epoch: 22 November)

Event Time Altitude Azimuth Distance (km) Brightness Sun altitude
Rises 10:32:14 0° 285° (WNW) 3,886 7.5 21.2°
Reaches altitude 10° 10:35:04 10° 285° (WNW) 2,888 7.0 21.8°
Maximum altitude 10:42:07 89° 10° (N) 1,014 5.6 23.4°
Drops below altitude 10° 10:48:41 10° 103° (ESE) 2,700 9.1 24.9°
Sets 10:51:15 0° 102° (ESE) 3,619 9.3 25.5°
